Location: Allen Fire Department Station 4
(33.1073°N, 96.6988°W)
Time: 10:18:58
(UTC+00:00)

Cosmos 1515 Rocket - Pass Details

Date: 03 December 2021
Orbit: 605 x 630 km, 82.5° (Epoch: 23 January)

Event Time Altitude Azimuth Distance (km) Brightness Sun altitude
Rises 12:22:53 0° 356° (N) 2,883 6.7 -10.7°
Reaches altitude 10° 12:25:08 10° 358° (N) 1,971 5.9 -10.2°
Maximum altitude 12:29:29 71° 82° (E) 644 3.8 -9.4°
Drops below altitude 10° 12:33:47 10° 168° (SSE) 1,947 6.6 -8.5°
Sets 12:35:59 0° 170° (S) 2,845 7.4 -8.1°
